CW9386 Weather Reports


time (UTC)temp
C
wind
direction
speed
KPH
gust
KPH
rain 1hr
cm
rain 24hr
cm
rain mn
cm
humidity
%
barometer
mb
20260504035700 18 121 1.6 6.4 0.00 0.00 0.00 50 1014.7
20260504033658 19 130 3.2 6.4 0.00 0.00 0.00 47 1014.7
20260504031654 20 153 0.0 3.2 0.00 0.00 0.00 44 1014.6
20260504025701 21 136 0.0 1.6 0.00 0.00 0.00 43 1014.5
20260504024656 21 107 0.0 1.6 0.00 0.00 0.00 44 1014.6
20260504022651 22 116 0.0 1.6 0.00 0.00 0.00 41 1014.5
20260504021646 22 211 0.0 1.6 0.00 0.00 0.00 39 1014.4
20260504015701 23 217 0.0 3.2 0.00 0.00 0.00 39 1014.3
20260504014651 23 203 0.0 1.6 0.00 0.00 0.00 39 1014.1
20260504013644 23 203 0.0 1.6 0.00 0.00 0.00 37 1014.2
20260504012656 23 203 0.0 4.8 0.00 0.00 0.00 36 1014.2
20260504011652 23 186 0.0 4.8 0.00 0.00 0.00 36 1014.2
20260504010650 23 198 1.6 6.4 0.00 0.00 0.00 35 1014.2
20260504004643 23 190 3.2 9.7 0.00 0.00 0.00 35 1014.5
20260504003655 23 174 6.4 12.9 0.00 0.00 0.00 34 1014.6
20260504002654 23 168 6.4 14.5 0.00 0.00 0.00 34 1014.7
20260504001644 23 192 6.4 14.5 0.00 0.00 0.00 34 1014.8
20260504000659 23 173 9.7 16.1 0.00 0.00 0.00 34 1014.9
20260503235655 23 167 8.0 16.1 0.00 0.00 0.00 33 1014.9
20260503234643 23 157 8.0 16.1 0.00 0.00 0.00 33 1015.2
20260503233656 23 165 11.3 17.7 0.00 0.00 0.00 33 1015.1
20260503232652 23 175 8.0 19.3 0.00 0.00 0.00 33 1015.1
20260503231640 23 196 11.3 17.7 0.00 0.00 0.00 34 1015.3
20260503230658 23 204 11.3 17.7 0.00 0.00 0.00 34 1015.5
20260503225653 23 194 4.8 17.7 0.00 0.00 0.00 34 1015.4
20260503224648 23 134 6.4 19.3 0.00 0.00 0.00 34 1015.8
20260503223639 23 161 4.8 17.7 0.00 0.00 0.00 35 1016.0
20260503222655 23 190 6.4 22.5 0.00 0.00 0.00 34 1016.1
20260503220639 23 236 8.0 14.5 0.00 0.00 0.00 34 1016.6
20260503215655 23 210 3.2 8.0 0.00 0.00 0.00 35 1016.7
20260503214646 23 164 3.2 19.3 0.00 0.00 0.00 34 1016.9
20260503211656 23 172 9.7 19.3 0.00 0.00 0.00 34 1017.8
20260503210654 23 167 8.0 20.9 0.00 0.00 0.00 35 1018.1
20260503205645 23 161 6.4 22.5 0.00 0.00 0.00 34 1018.2
20260503204641 23 186 11.3 17.7 0.00 0.00 0.00 34 1017.8
20260503203655 23 171 8.0 19.3 0.00 0.00 0.00 35 1018.0
20260503202645 22 181 6.4 22.5 0.00 0.00 0.00 34 1018.4
20260503201644 22 159 12.9 19.3 0.00 0.00 0.00 35 1018.6
20260503200642 22 167 14.5 22.5 0.00 0.00 0.00 34 1018.6
20260503195653 22 154 9.7 19.3 0.00 0.00 0.00 33 1018.7
20260503194651 23 186 11.3 22.5 0.00 0.00 0.00 33 1018.9
20260503193643 22 226 8.0 22.5 0.00 0.00 0.00 34 1018.9
20260503192637 22 190 8.0 17.7 0.00 0.00 0.00 35 1019.0
20260503191649 22 229 9.7 17.7 0.00 0.00 0.00 35 1019.1
20260503190639 22 234 6.4 14.5 0.00 0.00 0.00 36 1019.3
20260503185651 22 27 0.0 6.4 0.00 0.00 0.00 38 1019.4
20260503184647 22 283 1.6 6.4 0.00 0.00 0.00 37 1019.5
20260503183645 22 217 4.8 8.0 0.00 0.00 0.00 39 1019.5
20260503182642 21 151 0.0 3.2 0.00 0.00 0.00 40 1019.7
20260503181634 21 102 3.2 9.7 0.00 0.00 0.00 40 1020.1
20260503180648 21 253 4.8 12.9 0.00 0.00 0.00 41 1020.3
20260503175644 21 182 4.8 8.0 0.00 0.00 0.00 42 1020.4
20260503174639 20 311 3.2 11.3 0.00 0.00 0.00 43 1020.4
20260503173653 20 281 4.8 9.7 0.00 0.00 0.00 43 1020.7
20260503172650 20 236 4.8 8.0 0.00 0.00 0.00 44 1020.7
20260503171644 20 312 1.6 6.4 0.00 0.00 0.00 43 1021.0
20260503170634 20 9 4.8 6.4 0.00 0.00 0.00 45 1021.1
20260503150639 13 340 3.2 4.8 0.00 0.00 0.00 73 1021.7
20260503110625 10 78 0.0 0.0 0.00 0.00 0.00 82 1020.8
20260503081622 12 82 1.6 3.2 0.00 0.13 0.00 75 1021.6
20260503080638 12 83 1.6 4.8 0.00 0.13 0.00 74 1021.6
20260503071640 13 105 1.6 4.8 0.00 0.13 0.00 66 1022.3
20260503054634 13 86 1.6 4.8 0.00 0.13 0.13 67 1021.6
20260503053646 13 329 0.0 3.2 0.00 0.13 0.13 70 1021.6
20260503051636 13 29 3.2 6.4 0.00 0.13 0.13 69 1021.7
20260503050641 13 41 3.2 6.4 0.00 0.13 0.13 69 1021.7
20260503045650 14 14 3.2 8.0 0.00 0.13 0.13 68 1021.8
20260503044648 14 43 3.2 12.9 0.00 0.13 0.13 67 1021.6
20260503043643 15 16 4.8 6.4 0.00 0.13 0.13 66 1021.7
20260503041638 15 350 3.2 4.8 0.00 0.13 0.13 63 1021.7
20260503040649 15 317 1.6 3.2 0.00 0.13 0.13 62 1021.5